Wind_Speed
3 5 1 4 5 8 9 8 8 6 7 8 5 4 6 5 2 3 3 5 8 6 3 6 8 7 7 8 7 5 4 2 1 0 2 2 2 2 2 3 1 0 3 2 2 2 2 3 2 1 2 3 3 3 2 2 2 2 1 1 1 1 3 4 5 6 6 7 9 10 9 7 4 2 4 5 6 7 6 6 7 6 7 10 9 5
5 5 5 7 9 10 10 10 8 6 6 6 7 5 5 5 3 4 6 5 5 5 3 5 7 6 7 8 6 6 5 3 3 3 3 4 3 2 2 3 1 0 1 2 2 2 2 3 1 1 2 3 5 5 4 2 0 0 1 2 3 3 5 6 6 7 8 9 10 12 11 9 5 4 4 5 6 7 5 5 7 7 6 9 10 5
5 2 7 9 10 6 7 10 9 6 7 5 6 6 5 4 3 4 4 5 4 4 4 5 7 5 5 6 5 5 4 4 6 6 5 5 4 4 4 3 2 1 0 1 3 3 2 2 3 3 3 3 5 5 4 4 3 3 3 4 5 5 7 7 7 9 10 11 9 8 6 5 3 3 3 4 5 5 4 5 7 7 7 7 8 7
2 4 8 6 5 2 3 8 8 5 7 5 5 7 4 4 4 3 3 5 4 4 6 7 6 4 2 2 1 3 4 5 7 6 3 4 5 5 5 4 4 4 3 2 3 3 4 5 5 5 5 5 5 5 5 5 5 5 4 5 6 7 7 7 8 9 10 8 5 5 4 1 2 3 3 4 5 4 4 4 6 7 6 7 6 7
3 7 5 2 3 1 1 2 4 6 5 4 5 7 6 5 6 6 7 7 4 4 8 9 6 4 3 3 1 1 1 4 5 4 3 2 2 3 3 3 4 4 4 4 3 4 5 7 7 7 7 7 6 6 6 5 5 5 4 5 6 7 7 9 10 7 5 5 5 5 4 2 4 5 5 7 7 6 6 5 7 7 7 7 5 6
3 5 1 4 4 2 4 3 2 6 6 2 4 9 10 7 8 11 12 9 6 4 5 6 5 3 5 3 1 2 3 4 3 4 5 3 2 3 4 4 3 3 4 4 4 5 7 8 7 7 8 8 7 7 6 5 5 5 6 7 7 8 9 10 7 4 5 7 7 7 7 6 7 8 8 8 8 7 7 6 6 7 7 6 4 6
1 4 7 4 4 5 6 4 1 5 7 2 4 10 10 10 12 14 11 6 5 4 3 3 6 1 4 5 4 1 4 3 3 4 4 4 4 4 4 4 4 4 4 4 4 5 8 8 8 8 9 8 8 7 5 5 5 6 7 7 6 7 7 7 6 7 8 7 6 7 8 8 9 10 10 9 9 8 7 6 6 6 6 5 4 6
1 7 8 6 6 6 5 3 2 5 7 2 5 11 11 11 12 11 9 5 4 4 3 6 6 4 2 3 7 3 4 5 3 3 4 4 4 4 4 4 4 4 4 4 4 5 8 9 9 9 9 8 7 6 6 6 5 6 7 6 5 6 7 8 8 9 8 6 7 9 9 10 10 11 12 10 9 9 8 7 6 6 6 4 4 4
1 5 5 5 7 5 2 2 3 6 5 2 6 11 11 10 10 9 8 5 3 5 5 3 4 6 3 4 7 5 5 5 2 3 4 4 4 4 5 5 5 5 4 4 4 6 8 10 10 9 8 6 5 4 5 6 5 5 6 5 6 7 7 7 7 7 7 7 8 9 9 10 10 11 11 9 9 9 9 9 8 7 7 6 6 5
1 3 5 5 4 1 2 6 3 7 3 2 7 9 7 8 9 9 8 5 4 6 5 4 3 6 1 3 5 4 3 3 2 1 2 2 3 4 5 5 5 4 3 3 4 6 9 10 10 9 8 7 5 3 3 6 5 5 5 5 5 7 7 6 6 7 8 8 10 10 9 10 11 12 11 9 10 11 11 12 11 9 9 8 8 7
1 0 3 4 1 2 1 4 1 4 2 2 8 7 6 6 5 5 4 4 6 4 2 3 4 6 3 1 2 1 1 1 3 3 3 3 3 2 2 2 3 3 3 2 3 4 6 7 8 8 8 8 7 5 5 5 6 6 6 6 6 8 9 9 9 9 11 11 11 12 11 11 11 12 12 13 13 14 13 13 12 11 11 11 10 9
5 4 2 0 0 2 3 4 3 3 3 4 6 5 5 3 4 4 4 5 6 1 3 2 9 9 5 0 4 2 2 3 3 5 4 4 4 2 2 2 2 3 3 3 1 2 3 4 5 6 7 7 7 8 7 7 7 8 9 9 10 10 11 12 13 14 14 14 13 13 13 13 12 12 13 14 14 14 13 13 13 12 13 13 12 11
4 3 3 2 2 3 5 4 5 6 6 4 5 5 5 1 4 4 3 3 2 1 1 6 10 7 4 3 4 5 4 3 3 6 6 6 5 5 4 4 4 3 3 2 2 1 2 4 5 6 6 6 6 7 7 7 9 10 11 11 13 14 13 13 14 15 16 16 16 15 12 12 13 13 13 13 12 12 11 11 12 13 15 15 14 12
3 6 5 4 4 2 6 4 3 4 4 3 4 5 5 3 4 3 1 2 2 3 4 6 7 4 2 2 1 4 8 5 3 5 5 6 6 6 6 6 6 5 4 3 1 1 3 5 6 7 7 6 7 7 7 8 9 10 11 12 13 16 16 15 16 17 17 18 16 12 11 13 15 16 16 15 14 12 12 12 12 13 15 16 16 14
3 3 3 1 2 1 3 2 3 2 2 2 3 5 5 4 5 5 4 4 4 3 3 4 4 3 2 1 4 1 8 7 3 7 6 6 6 6 7 7 6 6 5 3 2 1 3 4 6 7 7 6 7 8 8 9 9 10 12 13 15 17 17 18 18 19 20 20 19 16 14 16 19 19 19 18 18 16 16 16 16 15 15 15 17 15
4 2 6 3 1 3 3 1 2 5 3 2 2 5 3 4 5 4 3 5 6 3 3 3 2 3 3 3 5 3 5 2 7 9 7 7 6 7 7 6 5 4 4 4 3 2 1 4 6 6 6 6 6 7 8 9 10 11 13 15 16 17 18 19 20 21 22 22 22 18 14 16 21 22 22 21 20 18 18 19 18 18 17 14 13 12
3 2 6 3 2 3 3 1 3 4 2 1 3 2 2 3 8 7 3 3 5 6 3 2 3 4 3 5 4 2 2 6 9 8 7 6 7 8 6 5 5 4 3 3 2 2 1 2 5 5 5 5 5 6 7 8 10 12 14 15 16 18 18 19 20 22 23 24 23 17 14 15 19 21 22 21 20 19 20 20 20 19 18 14 11 10
3 1 7 2 3 1 0 4 6 4 4 4 2 2 2 3 6 6 4 3 4 5 2 2 3 3 2 4 3 4 3 9 7 7 7 5 6 8 5 4 5 4 4 3 1 2 2 1 2 2 2 3 3 4 5 7 9 10 11 13 15 17 18 18 19 21 22 23 21 17 15 17 18 18 19 18 18 19 19 19 19 19 17 15 14 14
4 2 7 4 2 3 5 7 5 8 4 4 3 2 3 3 3 3 3 3 4 4 2 2 2 2 2 4 4 1 4 9 6 6 7 5 6 7 5 5 6 5 5 5 4 4 4 3 1 3 6 5 4 6 9 11 12 13 14 14 15 16 17 17 18 18 18 19 19 17 16 17 18 17 17 16 18 19 19 18 18 18 16 16 15 15
3 4 3 6 4 3 6 6 2 5 6 4 3 3 3 3 4 2 2 4 5 4 3 2 3 2 0 3 8 7 6 9 8 6 6 7 7 6 5 6 6 6 7 6 6 7 9 8 6 7 8 9 10 10 11 15 17 18 19 19 18 18 18 18 18 18 19 19 19 18 17 17 17 17 17 18 19 20 19 18 18 18 18 17 16 16
3 4 1 6 6 4 3 1 3 2 2 4 5 4 3 2 2 2 3 2 4 5 4 3 3 2 2 1 4 9 8 8 9 8 7 7 8 7 6 6 6 6 7 7 7 9 13 15 15 14 9 5 8 10 11 13 16 18 19 19 19 18 19 20 19 19 20 20 20 19 19 18 17 17 17 18 18 18 18 17 18 18 18 17 17 17
2 2 2 2 4 4 1 2 3 5 5 5 4 2 0 2 3 4 4 3 2 5 4 5 4 1 2 3 1 5 8 7 8 9 8 8 8 7 6 6 6 6 6 6 6 9 13 16 20 21 14 7 5 6 8 11 14 17 18 18 19 19 20 20 20 21 21 22 23 22 20 19 18 17 16 17 17 18 18 17 17 17 16 17 18 18
2 3 4 1 0 2 1 3 6 7 9 8 4 2 3 3 4 5 3 1 3 5 3 5 4 3 3 3 3 3 6 7 7 9 9 7 7 7 6 6 6 6 5 6 8 11 14 17 20 22 20 15 9 6 5 9 13 15 16 18 19 20 20 21 20 21 22 23 24 24 23 21 20 19 17 17 17 18 17 16 16 15 15 16 18 18
2 3 3 1 3 3 3 7 8 6 8 8 4 3 3 3 3 5 5 4 4 4 3 4 4 2 2 1 4 3 6 7 6 8 9 7 6 6 7 6 5 6 6 7 10 14 17 19 21 20 20 19 16 12 7 5 9 13 15 17 18 18 18 19 20 20 21 23 24 25 25 25 24 23 21 20 18 17 17 15 14 14 16 17 18 18
1 1 3 3 3 5 6 7 7 7 5 4 2 4 5 5 5 5 4 4 4 2 2 5 4 1 2 2 3 5 8 7 6 7 8 8 6 6 6 5 5 5 6 7 9 12 15 17 18 19 20 21 21 19 12 5 4 9 14 15 16 17 17 18 18 18 19 21 23 25 26 26 27 26 25 23 21 19 17 16 14 14 15 16 17 18
2 2 3 5 3 2 0 1 1 2 2 2 3 6 7 6 7 6 3 4 5 2 2 5 6 4 1 3 6 7 8 8 7 7 7 7 6 5 5 4 5 5 7 7 6 8 11 14 17 20 22 22 22 23 20 14 9 8 11 13 13 14 16 16 16 16 16 18 21 23 25 26 27 27 26 25 23 21 19 17 16 15 14 14 16 18
3 2 3 6 6 6 6 5 4 3 4 4 5 8 8 6 7 7 4 4 5 4 5 4 7 8 4 5 7 7 8 9 8 8 7 6 5 5 4 5 6 6 6 6 5 7 9 13 17 19 21 22 23 25 25 25 20 12 10 12 14 15 15 14 15 15 14 15 19 21 23 25 26 26 26 26 25 24 22 19 17 16 15 14 15 17
5 3 2 6 4 5 5 2 3 7 8 7 8 8 8 7 8 8 7 7 8 8 5 2 6 10 6 5 7 7 8 8 6 6 6 5 4 5 6 7 8 7 6 5 6 7 8 10 14 18 22 23 25 27 27 29 27 20 13 12 14 16 16 14 14 13 13 13 16 19 20 22 24 24 24 24 24 25 25 23 20 17 16 15 15 17
6 1 1 4 3 2 6 9 11 11 8 8 9 9 8 9 10 10 8 7 6 8 7 7 8 11 6 5 7 7 7 7 6 5 5 4 5 7 8 9 8 7 7 7 7 7 7 9 13 17 21 24 25 26 26 27 28 27 22 18 17 19 19 18 16 16 14 12 13 16 19 21 23 23 23 23 23 24 25 25 23 20 18 16 15 15
5 0 1 3 5 6 9 12 13 12 9 9 10 10 10 10 10 10 8 6 8 10 9 9 11 9 5 5 7 6 6 6 5 5 6 7 8 8 9 9 8 8 9 8 8 8 9 12 16 18 21 23 24 24 24 24 25 26 25 24 24 24 23 24 24 24 21 16 12 14 20 23 24 25 25 24 23 24 25 26 25 23 20 18 17 15
4 1 1 3 5 6 7 10 12 12 12 10 8 9 12 12 11 11 10 10 11 10 8 10 12 6 2 3 6 5 5 7 7 8 8 8 9 10 9 9 9 9 9 9 8 8 11 15 17 19 20 20 21 22 22 22 23 25 25 25 26 27 27 28 29 28 26 21 14 14 21 26 27 27 27 25 25 25 26 26 26 25 23 22 20 18
3 1 1 5 6 3 5 11 13 12 12 10 6 6 10 10 9 7 7 7 10 11 10 10 9 4 4 3 5 6 7 9 9 8 8 7 8 10 9 8 9 9 9 9 8 8 10 13 15 17 19 20 22 23 23 23 24 25 25 25 26 27 27 29 31 29 27 25 21 21 26 29 29 29 29 28 28 27 27 27 26 25 25 24 22 20
3 3 1 4 6 2 3 8 10 9 9 6 0 4 6 8 8 7 4 5 9 11 10 6 6 7 6 6 7 7 7 8 7 6 7 7 8 9 9 8 8 8 7 8 8 8 10 12 14 16 19 22 23 25 25 25 26 26 25 25 26 27 27 28 30 30 28 26 26 27 29 30 30 30 31 32 32 30 29 29 29 27 25 25 24 22
2 4 2 2 5 4 4 1 5 6 4 1 5 5 6 9 11 10 6 6 6 5 6 6 7 8 7 8 9 7 6 7 6 5 6 7 8 8 8 7 7 7 7 8 9 11 13 14 17 19 20 22 24 25 27 26 25 25 25 25 25 26 27 28 29 31 30 27 26 28 29 29 30 31 32 34 35 34 32 31 31 30 27 25 25 24
3 4 2 2 4 4 1 4 7 3 3 5 2 1 5 10 13 11 6 3 4 6 9 10 10 9 8 7 8 9 9 9 8 8 7 7 8 8 8 7 6 7 7 7 10 14 15 14 16 18 20 22 23 25 27 26 24 23 24 25 25 26 27 28 29 31 30 27 27 29 30 30 31 32 34 34 35 35 34 32 31 31 29 26 25 25
4 4 2 2 3 3 2 5 4 3 4 2 5 6 6 9 12 12 7 4 2 8 11 12 10 9 9 9 9 10 11 10 9 8 6 7 8 8 8 6 6 7 8 9 13 16 16 14 14 17 20 22 24 25 26 25 24 23 24 25 26 26 26 27 29 30 29 29 29 30 30 31 31 32 33 34 35 36 35 33 33 33 33 29 25 24
6 4 2 3 2 3 4 3 1 1 0 2 3 3 3 4 8 9 6 0 2 2 7 10 9 9 10 11 10 10 11 11 9 6 5 6 8 10 10 10 10 11 13 15 17 19 20 18 17 20 22 23 24 24 24 23 23 24 25 26 26 26 26 27 28 29 29 30 30 30 31 30 31 31 32 33 35 35 35 34 34 36 36 30 24 22
5 4 4 4 2 3 5 4 2 1 1 4 6 6 3 5 8 9 8 1 5 2 5 10 12 13 13 12 11 9 9 9 6 3 2 4 8 12 13 13 15 16 16 17 17 19 21 21 20 22 23 23 23 23 22 22 22 23 24 26 25 25 25 27 27 27 28 29 29 30 30 30 30 31 32 33 33 34 35 35 35 37 37 31 25 22
6 3 4 6 3 2 5 4 2 3 4 6 7 5 2 8 8 8 7 1 5 2 7 11 11 13 12 10 9 8 7 6 4 3 3 4 9 13 13 13 15 17 17 18 17 18 20 21 21 22 23 22 22 22 21 21 22 23 25 25 23 23 24 24 24 25 27 27 27 28 28 29 31 31 30 32 33 33 34 35 35 37 36 32 28 26
5 4 4 5 3 2 5 3 2 2 3 6 6 5 5 7 8 9 4 4 6 5 8 11 11 10 10 9 6 6 6 6 6 5 6 7 12 15 15 14 14 16 18 18 17 17 18 20 21 21 21 22 22 22 20 20 22 25 26 24 23 23 23 22 23 25 26 26 28 29 29 30 32 31 30 30 33 33 33 33 34 36 36 33 31 30
3 3 2 5 4 3 5 3 1 3 4 5 5 6 6 5 7 5 4 6 5 6 7 10 11 9 8 8 6 4 4 6 7 6 7 11 13 13 15 17 17 18 18 17 16 16 17 19 20 20 20 20 21 21 21 22 25 26 26 25 25 24 23 23 25 25 25 27 30 31 31 31 31 31 30 31 32 32 32 32 32 33 34 35 35 33
2 1 1 3 3 3 3 3 1 3 4 4 4 3 3 5 2 4 5 3 7 8 7 9 11 8 8 8 7 7 6 7 8 7 7 11 12 11 15 18 18 18 16 15 15 16 17 19 20 20 20 20 21 22 22 24 26 26 27 27 26 24 24 25 26 26 26 27 29 29 30 31 30 30 31 31 32 32 32 32 32 31 32 35 37 36
4 3 0 1 3 3 3 3 2 2 5 6 6 1 2 3 5 5 4 5 7 9 9 10 9 9 10 10 8 9 9 8 8 7 7 11 12 13 16 17 16 15 14 15 16 16 17 19 19 19 20 21 22 23 23 23 25 27 28 26 24 25 26 27 26 26 26 27 27 28 30 31 30 31 31 31 32 33 33 33 32 31 31 33 35 36
3 3 2 3 2 3 3 2 3 5 5 4 6 4 2 4 5 7 9 6 6 7 8 8 7 8 12 12 9 9 9 8 8 8 8 9 12 14 15 15 14 14 14 15 16 16 17 19 19 19 21 22 23 23 22 22 24 27 27 24 24 26 29 29 27 26 26 27 28 29 30 30 30 31 31 31 32 32 31 32 33 32 32 33 33 34
4 5 5 3 1 3 5 5 5 3 1 2 4 4 4 4 5 8 10 7 5 6 6 8 8 7 10 13 12 10 9 8 9 8 8 9 12 13 13 13 13 14 15 16 16 16 18 18 18 19 21 23 23 23 22 23 25 26 24 24 27 29 29 28 27 26 26 27 28 29 30 30 31 32 32 32 32 31 29 30 33 32 32 32 32 32
3 4 5 4 2 2 2 0 1 3 4 5 5 4 5 7 6 7 9 7 5 5 6 8 9 8 9 11 11 9 8 8 9 8 9 10 11 11 12 13 14 15 16 16 17 17 17 18 19 19 21 23 22 22 23 25 26 24 24 26 29 30 28 27 26 26 26 26 27 29 31 31 32 32 32 32 31 30 28 28 30 30 30 31 31 31
2 3 4 4 4 3 1 1 2 5 6 7 7 7 7 7 6 6 9 8 7 8 8 9 10 10 10 11 11 10 9 9 9 8 8 9 10 11 13 14 15 15 16 16 17 17 18 19 19 19 21 22 21 21 23 25 25 25 26 28 30 29 27 26 25 25 25 26 28 29 30 30 30 31 31 31 31 31 29 30 31 29 29 30 31 32
3 3 5 4 3 3 2 4 4 6 5 5 7 7 7 8 7 7 9 10 10 11 12 14 15 13 10 10 11 11 9 9 10 8 6 8 11 11 13 14 15 16 17 17 17 18 18 18 18 18 20 21 20 21 23 24 25 26 27 29 29 27 26 25 25 24 24 25 27 29 29 28 28 29 29 29 30 31 30 31 31 29 28 28 29 30
3 5 4 4 4 4 3 3 6 7 5 3 5 7 8 9 10 10 10 11 12 12 12 14 16 16 14 14 14 13 9 8 12 13 9 9 11 12 14 15 16 16 17 17 18 18 17 17 17 18 20 20 19 21 23 24 25 26 26 27 27 26 25 25 24 23 23 25 27 29 28 27 27 28 28 28 29 31 30 29 29 28 27 28 28 27
5 5 4 6 7 4 4 8 9 7 3 4 7 9 9 10 13 12 11 11 11 12 12 11 12 15 17 18 19 17 10 8 13 16 13 10 11 12 14 17 17 16 16 17 18 17 15 16 17 18 19 19 19 21 23 25 25 25 25 26 25 25 25 25 24 23 23 25 27 28 28 27 27 27 27 27 29 30 31 31 30 27 26 28 29 27
6 8 8 8 6 6 9 13 11 7 6 8 10 11 10 11 13 13 12 11 10 13 15 13 10 10 11 14 21 22 16 13 17 17 14 11 13 14 16 17 17 17 16 17 16 15 15 15 17 18 19 19 21 22 24 25 25 24 24 24 24 25 26 25 23 23 23 24 26 27 26 26 26 26 26 27 28 29 30 32 33 32 30 30 30 29
Wind_Direction
103 92 197 208 194 188 183 194 193 172 153 141 113 112 139 139 146 151 108 116 124 103 102 128 130 149 172 201 211 195 192 260 341 315 296 284 268 260 271 278 262 354 278 288 285 234 182 185 208 268 217 204 174 160 163 147 122 96 46 5 334 307 288 293 305 313 317 319 322 321 325 335 336 342 350 350 358 0 6 21 24 14 6 9 9 358
65 102 209 224 216 192 173 204 207 143 144 125 105 123 137 143 157 137 130 140 117 94 116 128 118 135 165 183 194 167 167 230 227 210 233 219 212 222 244 270 267 9 302 313 287 249 166 163 198 232 206 208 200 186 183 185 144 316 292 304 303 304 297 300 301 299 300 304 312 307 300 305 309 301 308 341 8 13 20 25 23 20 10 13 24 20
36 114 234 229 220 201 149 194 207 136 126 110 105 129 141 165 138 92 116 136 114 103 125 117 107 124 157 161 175 179 176 196 207 210 205 188 179 190 209 220 194 161 191 300 282 261 226 180 170 192 212 213 208 203 201 207 227 236 260 283 287 296 297 295 291 294 298 301 318 328 306 292 319 331 326 358 10 12 22 22 19 25 20 14 20 20
52 246 243 219 196 215 115 173 187 111 101 128 129 127 154 180 130 98 138 137 125 119 124 110 93 88 80 87 171 209 193 172 192 209 196 184 182 182 192 182 173 180 185 221 257 246 228 206 187 193 204 204 206 218 222 219 221 228 248 262 273 290 292 296 301 307 308 302 320 359 10 5 3 14 9 354 349 347 355 1 2 7 8 6 3 6
211 242 230 118 88 148 48 105 142 107 111 167 148 132 161 176 133 135 139 118 79 87 121 108 67 15 6 35 81 127 131 128 149 161 146 195 191 147 146 159 177 188 186 195 209 211 210 208 205 202 202 198 203 217 223 226 223 231 255 261 272 286 294 304 307 311 320 311 312 330 341 335 331 334 329 330 333 333 328 324 342 352 347 350 353 355
236 266 54 38 25 87 97 63 94 118 117 160 170 157 158 144 124 126 126 111 82 102 153 115 79 333 325 353 64 69 74 77 90 129 150 174 153 127 148 171 184 192 196 201 198 193 196 205 212 213 210 206 209 217 221 232 238 252 278 283 280 284 296 303 300 303 315 313 315 321 321 319 323 322 316 318 318 319 317 309 328 343 333 328 343 359
305 8 39 33 39 66 88 94 168 124 104 87 176 165 148 134 138 134 126 111 113 161 211 85 106 171 323 339 325 9 116 98 71 118 149 160 159 178 187 181 186 188 195 204 199 194 194 201 211 215 219 216 214 221 225 236 253 267 283 291 280 278 295 301 301 306 307 305 313 318 315 313 316 310 304 304 299 296 298 296 309 324 326 312 311 348
32 37 33 33 62 63 64 80 205 125 105 107 162 154 146 141 145 138 117 102 137 149 35 45 104 116 24 342 320 323 115 99 83 130 158 163 165 188 197 189 196 197 191 192 195 201 204 207 212 214 218 217 217 229 232 234 251 269 284 289 266 267 289 290 290 302 305 298 302 309 307 302 302 304 308 301 281 279 288 292 295 298 305 300 285 316
354 63 61 55 62 63 75 223 220 102 99 223 148 143 147 139 136 124 107 99 92 91 83 76 98 85 39 325 323 340 88 93 103 156 167 169 158 166 184 196 204 206 198 196 201 208 212 214 215 217 217 216 221 234 225 224 242 266 286 284 254 261 287 289 282 291 299 289 292 305 308 304 298 301 311 300 270 274 286 290 287 280 285 291 286 295
202 135 137 108 73 60 242 253 224 103 120 202 107 111 115 113 120 112 106 110 64 78 137 177 104 95 94 310 325 359 67 117 154 138 137 144 134 147 170 189 199 211 208 211 225 222 221 221 221 221 222 223 228 234 215 223 242 265 284 283 256 259 280 293 287 286 293 287 283 291 296 302 302 297 302 299 281 280 283 284 283 279 282 287 287 290
268 182 126 115 124 190 215 286 243 127 177 120 86 81 77 69 76 82 79 94 75 50 236 210 105 104 118 253 280 354 15 217 155 88 67 87 91 119 154 163 173 192 195 197 226 232 228 225 225 228 233 234 238 253 254 245 254 265 277 282 268 260 267 277 283 286 291 290 286 286 284 288 297 297 298 300 296 288 281 279 280 283 287 290 290 288
348 11 9 94 134 104 56 354 352 28 19 75 84 86 99 53 24 36 8 37 79 54 280 123 90 78 85 45 310 323 312 275 156 125 115 108 83 54 26 36 79 141 159 159 175 235 239 226 227 238 242 243 247 259 265 257 259 265 271 277 276 270 266 270 277 282 285 287 288 287 283 280 288 294 295 301 306 300 289 282 281 283 287 289 286 284
342 334 307 328 360 68 69 12 346 7 23 75 99 91 107 76 24 40 12 27 98 121 81 99 88 70 78 67 342 319 313 288 162 135 125 112 87 60 40 34 40 61 100 113 129 177 230 233 241 253 252 249 255 265 270 266 267 272 274 278 279 278 276 278 281 283 284 285 283 285 295 304 302 290 280 284 298 304 301 293 291 292 292 289 279 275
346 320 328 13 343 16 97 68 352 344 3 66 124 120 116 110 82 91 82 73 118 128 108 94 85 78 61 74 213 298 317 302 137 106 99 101 88 71 53 47 46 41 49 56 47 185 213 228 236 248 255 254 259 271 280 282 283 283 282 286 287 286 287 288 288 287 287 285 284 292 312 317 308 295 286 283 285 293 297 293 294 297 298 294 282 273
97 320 308 94 297 334 96 129 162 158 6 29 153 128 119 144 137 140 158 141 144 148 108 65 69 108 110 159 159 120 309 292 99 81 79 82 76 75 60 48 49 42 35 38 20 309 243 236 234 243 253 255 258 265 273 282 287 285 285 287 288 289 292 293 292 291 291 289 288 288 285 284 288 290 290 288 283 286 293 293 292 291 294 295 285 272
106 231 260 240 210 94 80 280 144 106 33 349 105 82 89 164 138 124 142 142 136 112 31 16 61 106 94 79 99 124 264 270 84 79 75 69 63 66 60 46 49 48 34 35 31 8 287 246 248 255 262 266 268 271 275 285 290 289 290 291 291 294 297 298 297 295 294 293 296 301 297 291 293 293 292 293 290 288 293 294 290 284 283 288 283 270
78 277 278 305 26 90 133 306 34 92 120 13 47 62 236 160 116 111 94 60 90 97 50 11 100 93 72 66 44 295 220 84 74 77 72 65 71 67 57 45 42 45 42 43 63 65 85 232 246 254 270 283 285 287 290 299 301 296 295 297 298 300 302 302 300 298 297 297 303 318 327 308 296 294 294 297 298 295 294 293 290 286 281 280 271 257
110 308 291 330 73 353 241 55 28 32 110 93 68 185 231 56 80 101 109 45 51 91 67 353 98 113 104 89 27 314 79 81 71 80 74 55 70 68 43 22 13 3 3 2 46 85 75 100 224 235 287 303 302 321 335 339 333 325 319 315 314 315 317 317 312 309 309 310 312 317 317 307 298 294 291 293 299 300 297 294 293 290 283 277 266 251
100 67 296 305 84 321 357 54 24 340 26 100 144 145 98 82 73 63 101 122 98 104 99 360 36 69 82 118 136 219 104 96 88 89 88 67 64 63 36 22 16 12 13 7 9 17 37 58 66 59 56 46 39 30 24 22 19 18 15 7 359 353 350 347 340 337 335 334 334 329 319 315 313 307 299 297 301 302 300 296 293 288 278 273 267 255
82 97 284 308 338 353 11 50 54 328 357 38 34 26 53 121 138 112 108 131 128 131 132 61 27 19 340 160 152 153 138 123 118 103 93 82 71 68 62 53 44 42 40 31 24 19 27 35 22 25 44 49 45 43 42 41 37 35 33 29 24 18 14 12 9 5 3 359 356 350 340 331 325 321 314 309 306 304 302 298 293 287 278 271 265 257
50 83 164 307 333 29 34 20 154 145 48 49 42 20 358 16 82 90 75 87 123 132 140 119 76 27 353 47 147 150 146 136 127 115 100 89 81 77 79 78 67 57 51 43 41 36 36 36 30 27 36 58 58 56 56 51 44 43 43 40 36 32 28 26 25 20 15 13 10 6 0 352 343 337 329 323 320 315 312 307 298 291 283 274 267 262
65 93 113 336 4 67 96 259 144 118 101 103 98 66 111 119 95 83 58 10 75 115 143 133 111 325 351 35 318 167 141 134 125 115 105 96 92 87 82 80 75 69 63 55 51 48 45 41 38 37 39 42 47 52 53 52 51 50 49 47 45 45 42 37 33 28 22 19 17 14 10 6 1 355 347 340 335 329 324 316 304 295 288 281 274 266
132 103 87 56 64 154 165 39 66 81 85 87 80 89 124 103 91 114 132 126 77 90 107 100 91 297 328 58 291 237 134 129 125 114 107 100 96 91 82 75 70 66 63 57 51 46 45 42 40 39 38 32 20 7 21 48 57 55 49 47 47 48 48 44 39 33 29 26 24 22 19 15 12 7 1 353 345 340 336 326 313 303 297 292 285 274
73 75 67 352 306 304 349 29 38 41 63 70 38 45 91 68 82 121 135 135 109 107 125 89 80 284 298 151 237 211 125 120 118 111 106 100 92 87 84 77 71 64 52 49 46 42 40 39 36 34 31 28 24 21 23 47 62 62 57 50 47 45 44 42 39 37 34 33 32 31 29 25 21 17 10 4 356 349 345 338 326 313 304 298 290 277
45 72 81 68 10 353 353 7 15 13 41 81 35 30 67 77 88 89 79 81 69 46 133 107 103 212 245 201 171 126 110 105 96 94 97 101 99 94 95 92 85 70 53 50 47 42 39 35 31 27 24 22 24 30 36 37 47 61 56 46 42 42 39 36 36 37 36 35 34 34 33 31 28 24 19 12 5 358 353 346 337 324 311 300 290 279
109 134 108 113 120 119 131 312 78 63 41 47 23 32 43 55 84 98 84 76 71 19 42 99 129 162 191 108 100 95 96 90 82 83 89 99 109 114 115 98 75 63 59 59 54 47 41 33 28 26 24 25 28 31 33 26 21 50 51 34 29 31 30 30 33 35 35 34 32 32 30 29 27 24 22 18 12 5 359 351 344 336 325 309 293 282
91 68 99 132 150 169 182 214 213 133 85 68 51 45 42 49 84 102 93 95 121 104 56 77 131 131 118 100 94 91 96 96 98 103 103 109 116 114 101 77 65 63 66 67 60 51 43 35 31 30 29 30 32 34 34 31 31 46 52 33 30 29 23 23 27 30 32 30 29 28 26 23 21 19 17 15 14 12 7 0 352 341 332 318 299 286
84 46 98 125 144 190 184 171 89 92 96 98 83 63 55 63 77 91 109 136 136 108 94 202 135 114 122 127 110 109 108 105 109 114 117 123 111 93 81 75 71 66 61 57 52 47 42 35 33 35 34 32 33 34 36 36 36 43 45 34 32 30 23 21 22 23 23 25 28 27 22 19 17 14 12 9 9 11 11 8 4 355 343 329 308 294
103 103 184 111 75 86 113 98 90 93 94 91 90 85 77 78 84 92 114 148 137 110 145 183 134 115 136 138 120 126 123 118 124 126 122 103 84 84 86 80 70 59 49 43 38 36 36 32 31 35 38 40 39 37 37 38 38 40 40 35 30 26 22 22 21 18 14 14 26 30 24 22 19 15 11 7 4 5 5 5 6 4 357 346 330 313
106 189 259 105 73 58 87 102 101 99 93 82 85 90 84 82 90 96 105 119 104 105 133 140 116 114 144 140 130 141 132 119 113 97 84 77 78 83 83 75 65 56 48 42 39 36 37 36 34 37 40 42 42 40 39 39 38 38 36 33 30 27 25 25 23 21 19 15 22 29 25 24 23 18 12 9 5 2 359 359 359 359 359 354 344 331
84 183 244 94 74 43 69 98 99 98 101 92 80 88 90 86 88 96 107 109 100 103 120 117 109 113 199 154 129 127 113 98 89 82 77 80 88 87 80 71 64 56 48 44 44 42 41 41 39 39 37 36 37 37 35 34 36 36 32 30 29 26 26 25 23 21 23 23 24 23 19 18 19 16 11 7 3 1 358 356 354 353 353 352 348 340
73 125 359 67 78 60 87 103 101 96 93 80 69 98 104 100 103 114 128 130 127 129 123 113 116 148 214 180 116 101 98 93 92 95 91 89 93 90 85 77 66 58 51 46 43 41 39 38 38 38 36 34 33 31 27 26 29 29 27 26 26 24 24 24 21 19 22 25 24 18 14 13 11 9 6 2 359 356 353 353 353 351 350 350 349 344
104 106 89 85 93 120 148 124 114 95 74 55 28 168 127 108 114 120 119 131 137 135 135 143 160 173 181 152 116 100 97 97 99 101 100 100 96 88 85 81 73 65 56 49 44 38 35 34 38 41 39 37 35 32 29 29 27 25 24 24 22 21 21 20 19 17 16 17 19 16 12 10 8 5 2 359 357 354 349 347 348 348 346 346 347 345
76 92 131 126 109 156 218 130 74 63 67 232 238 206 152 125 125 126 129 145 152 143 135 139 148 160 164 143 129 122 107 101 97 88 94 105 101 90 84 79 76 71 60 51 46 40 36 37 40 43 43 41 37 34 32 30 26 22 23 23 20 18 18 16 15 14 9 6 10 12 11 10 7 4 360 356 355 354 351 347 345 346 346 342 342 344
65 81 119 89 111 154 261 29 58 62 243 250 278 140 130 118 115 109 94 112 136 120 116 126 146 161 154 131 124 120 108 98 87 77 81 96 102 99 93 80 72 73 64 52 47 40 37 40 42 42 42 41 37 34 29 25 21 17 20 23 20 18 17 16 17 17 13 8 5 5 8 8 6 4 1 358 356 356 356 353 349 349 349 344 340 340
114 113 112 72 105 131 51 56 101 213 253 338 58 95 112 97 99 95 62 26 123 127 129 142 155 151 131 119 118 116 109 97 81 67 68 90 100 98 98 93 79 76 71 62 56 45 38 41 43 40 40 39 38 33 27 22 20 20 23 27 24 20 20 22 22 21 20 17 10 5 4 5 6 5 3 1 0 360 0 358 354 352 351 346 341 341
123 120 98 68 82 120 113 91 54 354 65 89 104 160 163 128 129 124 107 316 259 154 136 137 135 133 129 124 122 118 109 94 76 47 40 83 103 103 104 104 92 81 71 63 56 46 40 44 46 42 40 39 36 32 27 26 26 27 27 26 25 25 26 26 24 20 18 16 14 10 8 8 9 8 5 3 1 1 2 2 360 358 355 351 345 342
105 124 136 118 72 90 107 89 42 53 203 220 233 254 243 152 143 122 111 146 293 310 127 127 131 141 138 131 134 128 102 88 85 74 59 99 112 110 104 97 90 82 71 63 55 45 44 50 50 44 41 39 35 31 29 31 33 31 27 23 26 32 30 25 22 19 16 14 12 10 11 11 10 9 6 2 359 359 1 2 2 2 1 358 353 344
55 63 100 103 86 90 105 112 156 183 227 230 230 255 210 140 125 92 91 172 270 209 131 123 133 146 142 141 151 135 101 98 130 172 189 144 117 111 106 98 90 80 70 64 57 50 51 54 50 43 40 37 31 26 26 31 34 30 23 22 29 34 29 23 20 17 15 13 10 9 9 8 6 6 5 1 357 358 360 1 3 5 5 3 357 348
35 27 60 94 107 106 100 114 193 206 236 231 218 217 180 135 95 75 88 231 234 186 141 126 132 145 140 138 141 118 114 140 160 186 184 132 104 100 101 98 88 76 68 62 56 55 58 55 48 44 39 31 26 27 30 33 33 27 21 24 32 31 23 20 20 19 17 14 10 6 3 0 359 0 1 359 356 357 360 2 4 8 10 10 8 3
38 29 78 121 126 101 99 115 242 252 236 221 208 199 177 110 71 91 196 220 185 162 146 127 128 136 132 128 123 110 125 144 147 164 154 117 99 93 92 87 78 71 68 61 54 58 62 56 49 45 37 29 30 34 34 33 33 31 30 32 32 27 22 23 22 19 14 10 6 3 1 359 358 359 1 0 358 357 1 4 5 9 14 15 14 13
141 77 64 109 119 109 110 114 94 275 243 192 177 195 138 102 128 211 215 167 133 142 142 124 125 131 123 116 117 122 130 132 132 139 128 108 100 92 83 76 70 67 66 61 58 61 63 56 50 44 36 35 39 37 35 38 41 41 40 37 31 25 24 24 19 13 8 6 5 4 3 2 2 3 4 4 3 2 3 5 7 11 15 14 12 12
162 140 97 168 146 110 76 81 106 233 230 169 148 134 73 135 197 191 130 107 124 133 127 120 127 132 123 116 118 123 124 121 116 113 106 101 98 91 81 73 70 68 64 61 63 66 63 55 50 45 40 41 43 40 41 48 49 45 41 33 25 21 21 18 14 11 11 11 9 6 4 3 5 6 6 6 7 6 6 7 9 10 12 11 10 9
144 137 172 204 172 119 119 175 195 216 225 166 143 165 195 190 179 143 124 127 133 127 123 122 128 133 126 121 119 116 113 111 110 109 106 101 95 89 82 75 70 65 64 68 70 67 61 55 50 49 46 44 46 48 50 53 49 43 36 26 18 18 17 14 14 15 15 13 10 6 4 5 5 5 5 5 5 6 7 6 5 5 6 8 9 7
195 174 159 146 153 153 164 205 223 216 220 93 110 146 149 127 126 127 124 124 126 131 132 127 128 131 123 118 115 113 113 115 114 109 105 103 99 92 84 75 65 61 67 75 73 65 59 56 53 52 49 48 52 55 53 48 44 39 31 21 18 18 15 13 16 18 17 15 11 7 5 3 1 360 360 1 3 4 5 2 1 2 4 5 7 6
180 147 116 108 142 136 94 134 195 95 80 70 68 80 105 108 118 122 114 110 118 127 126 127 131 134 125 117 113 112 116 118 111 105 107 109 104 96 86 71 60 65 76 78 71 62 57 57 57 53 50 51 57 57 50 45 42 37 26 20 18 16 14 15 18 20 19 16 11 7 4 1 359 356 357 360 2 2 1 360 360 1 2 4 5 3
180 119 83 99 134 116 65 251 154 104 102 100 87 75 81 93 106 112 111 116 121 116 115 119 120 118 115 112 111 115 122 121 112 108 112 111 102 89 75 63 62 77 85 77 67 61 57 59 59 52 49 55 59 55 48 41 37 32 25 20 18 14 14 18 21 21 19 15 10 7 5 2 360 359 360 1 0 359 359 360 1 2 2 3 2 360
195 122 96 100 107 109 174 200 139 95 89 101 105 106 104 101 100 102 110 115 113 108 110 114 115 114 111 110 114 117 116 113 113 115 112 104 97 80 67 69 82 90 85 73 65 60 60 62 59 51 56 64 62 52 44 39 34 29 25 21 18 15 16 20 22 20 17 14 11 8 5 3 2 2 2 0 358 357 357 358 359 359 0 2 1 359
137 108 120 120 98 85 113 142 109 80 49 45 105 123 128 124 117 112 112 114 111 108 108 109 113 118 119 119 118 114 111 115 118 117 113 105 94 79 76 87 96 92 81 70 64 62 63 63 59 59 67 70 58 46 41 37 33 29 26 23 19 18 20 21 21 18 16 13 10 8 5 5 4 3 1 358 357 357 356 356 358 358 358 360 2 2
115 120 134 121 121 148 184 172 154 135 141 191 165 144 139 134 125 121 121 119 116 117 116 109 108 113 117 122 121 114 113 122 118 113 112 105 91 85 94 101 98 89 79 69 64 64 64 61 62 71 75 66 51 43 38 34 33 31 28 24 22 23 24 22 18 16 14 12 10 7 5 4 3 2 1 359 358 357 355 355 357 358 357 356 355 355
147 161 165 148 157 203 197 178 164 140 147 176 166 150 148 140 129 128 132 130 126 127 124 119 116 112 112 118 120 117 118 125 121 115 112 104 94 96 104 105 97 87 77 68 66 64 61 62 71 78 72 58 47 41 36 34 33 31 28 26 25 25 25 22 18 15 12 10 8 6 5 4 2 2 1 360 359 358 356 354 353 352 353 356 356 357
Height
784 797 804 802 803 803 802 798 797 801 803 808 817 822 824 827 829 825 824 823 820 831 841 839 844 849 850 848 844 843 844 843 844 844 845 845 845 844 844 843 842 842 841 840 841 842 843 843 843 843 843 844 845 845 845 846 847 847 848 849 849 850 850 849 849 849 848 848 848 847 847 847 847 848 848 848 848 847 846 846 845 845 844 844 843 842
786 801 804 794 792 793 798 795 792 801 805 808 819 825 827 828 827 822 823 824 819 830 842 839 843 848 844 844 842 840 843 844 842 844 845 845 846 846 845 844 843 842 841 841 841 841 843 843 843 843 843 844 846 846 847 847 848 849 849 850 850 850 850 850 849 849 849 849 848 847 847 848 848 848 848 848 848 847 847 846 846 845 845 844 843 843
796 801 795 787 785 787 795 795 793 801 806 812 820 826 830 827 825 825 823 823 821 829 841 841 845 848 842 841 842 840 841 843 843 842 842 844 846 846 845 845 844 844 843 842 842 842 842 843 844 845 845 845 846 847 848 849 849 850 850 851 851 850 850 850 850 849 849 849 849 848 847 848 848 848 848 848 848 847 847 846 846 846 845 845 844 843
805 798 787 783 784 786 793 796 797 802 809 816 820 825 830 824 826 834 830 826 824 827 836 841 846 849 845 844 843 841 839 839 841 842 842 843 844 845 844 844 845 845 845 845 844 844 844 844 845 846 846 847 848 848 849 850 850 851 851 851 851 851 850 850 850 850 849 849 849 848 848 848 848 848 848 848 847 847 846 846 846 845 845 844 843 843
800 790 781 782 785 787 792 797 799 805 814 818 815 819 825 821 823 830 828 827 829 831 833 839 852 856 851 851 849 841 839 839 842 843 844 844 844 844 845 845 846 845 846 846 846 846 846 846 847 847 848 849 849 849 850 850 851 851 852 852 852 851 851 851 850 850 850 849 849 849 848 848 848 848 847 847 847 846 846 845 845 845 844 844 843 843
794 784 780 785 788 790 794 799 798 801 811 817 814 811 814 817 821 825 826 830 842 851 838 836 864 873 856 853 854 846 844 844 844 846 847 847 846 846 847 847 847 846 846 847 847 847 847 847 848 849 849 850 850 850 851 851 851 852 852 852 852 852 851 851 851 851 851 850 850 849 849 848 848 847 847 846 846 845 845 844 844 844 844 843 843 843
792 783 783 790 793 794 797 799 797 796 805 814 811 805 806 813 820 824 826 832 848 856 840 833 861 879 866 857 855 851 850 849 848 849 849 849 848 848 848 848 847 847 847 847 847 847 848 848 849 849 849 850 851 851 851 852 852 852 852 851 851 851 851 851 851 851 851 850 850 849 849 848 848 847 846 846 845 844 844 844 844 844 843 843 843 843
792 788 789 792 793 797 799 799 795 791 802 810 804 802 806 812 819 823 825 834 842 843 842 840 851 873 877 866 858 854 854 853 852 852 851 849 850 849 848 848 848 847 847 847 848 848 848 849 849 850 850 851 851 851 852 852 852 852 852 851 851 851 851 851 851 850 850 849 849 849 848 848 847 846 846 845 844 844 843 843 843 843 843 843 842 842
790 792 794 792 794 799 799 796 790 787 799 803 797 800 805 809 817 821 826 837 840 843 856 852 847 872 886 870 860 858 857 859 856 853 852 849 849 849 848 849 848 847 848 848 848 848 848 848 849 850 851 851 852 852 852 852 852 852 852 851 851 851 851 850 850 849 849 848 848 847 847 846 845 845 844 843 843 842 842 842 842 841 841 841 841 841
789 788 787 789 796 799 795 791 786 788 796 794 793 801 805 810 817 820 830 839 842 853 865 856 848 874 892 878 867 864 861 862 859 854 853 850 849 849 848 849 848 848 849 849 849 849 849 848 849 850 850 851 851 851 852 852 852 852 851 851 850 850 850 849 849 848 848 847 846 846 846 845 844 843 842 842 841 841 840 840 840 839 840 840 840 840
786 781 781 786 792 791 788 788 786 787 790 788 796 805 810 817 820 825 833 835 847 863 864 854 849 864 885 883 871 865 861 859 857 856 855 852 850 849 849 849 849 849 849 850 850 849 849 850 850 850 851 851 851 851 851 851 851 851 851 850 850 849 849 848 848 847 847 846 845 845 845 844 843 842 841 840 839 838 838 837 837 837 838 838 838 838
790 787 788 784 784 784 787 790 788 788 788 790 801 811 820 829 829 835 841 841 861 873 861 853 852 862 885 888 873 864 859 856 855 856 856 854 853 851 850 850 849 849 850 850 851 850 850 850 850 851 851 851 851 851 851 851 851 850 850 850 849 848 848 847 847 846 845 845 845 844 844 843 842 841 839 838 836 836 835 835 835 835 835 836 836 837
798 796 793 787 783 783 791 798 796 793 793 797 805 815 830 842 846 855 859 860 870 871 858 853 855 870 890 888 875 866 863 859 854 852 854 854 854 853 852 852 851 851 852 851 852 852 851 851 851 851 851 851 851 851 851 851 850 850 849 849 848 847 847 847 846 845 845 844 844 843 844 844 842 840 838 836 835 834 834 834 834 833 834 834 834 835
811 805 795 793 791 784 791 804 807 804 802 804 808 814 829 844 859 874 876 874 876 869 859 853 857 877 889 884 877 871 870 866 855 852 855 854 855 856 855 855 854 854 854 853 853 852 852 852 852 852 852 851 851 851 851 850 850 849 848 848 847 846 846 846 845 844 843 842 842 843 844 843 841 839 837 836 835 834 834 833 833 833 832 832 832 833
826 823 804 799 798 789 791 798 802 804 802 804 804 807 818 828 846 865 868 871 876 870 863 859 867 882 886 881 876 872 873 869 858 856 857 855 856 857 857 857 857 857 856 855 854 853 853 853 853 853 852 852 852 851 851 850 850 849 848 848 847 846 846 845 844 843 841 840 840 840 841 840 839 838 837 835 834 833 833 833 832 831 831 831 831 832
825 825 803 794 793 789 793 791 788 798 806 805 802 807 815 815 825 847 859 860 865 872 875 873 876 880 878 875 873 873 875 868 861 860 859 859 858 857 859 860 859 859 858 856 856 855 854 854 853 853 853 852 852 852 851 851 850 849 848 848 847 847 846 845 843 841 840 838 837 838 840 840 838 837 836 834 834 833 832 831 830 829 829 829 830 832
823 821 801 793 792 787 790 789 786 796 807 807 808 814 814 809 816 841 863 862 862 880 887 881 881 881 880 881 878 877 875 867 864 865 863 863 861 859 861 861 861 860 859 858 857 856 856 855 854 854 854 854 853 852 852 851 851 850 849 848 848 847 846 845 842 840 839 838 837 839 841 840 837 835 834 834 833 832 830 830 829 828 828 827 827 830
819 821 805 797 799 790 784 787 788 790 797 806 815 813 808 810 815 831 858 869 874 889 890 882 885 885 886 891 887 881 877 870 870 869 867 867 863 862 864 863 862 861 859 859 858 857 857 855 855 855 855 855 854 853 853 852 851 850 849 848 847 846 845 844 842 840 839 838 838 838 838 836 833 832 832 832 831 829 828 827 827 827 827 826 825 826
812 822 814 799 801 796 785 792 801 796 792 800 807 804 807 822 829 833 850 868 880 894 894 887 887 884 885 889 887 884 880 875 874 871 869 869 866 865 866 864 864 863 861 860 859 858 857 856 856 856 856 856 855 854 854 853 852 850 849 848 846 845 844 843 842 840 839 838 837 837 834 832 832 830 830 830 828 827 825 825 825 825 824 823 823 823
810 824 825 806 800 800 796 804 816 812 801 799 801 803 809 819 829 834 843 856 871 889 896 892 891 887 881 880 880 881 878 874 874 873 870 869 867 868 868 867 866 864 863 862 860 860 859 858 857 857 857 857 855 855 854 853 853 850 849 847 846 845 843 842 841 839 838 837 836 835 833 831 830 829 829 828 827 826 824 823 823 823 822 821 821 821
810 823 829 816 805 808 813 814 817 816 811 810 813 817 818 818 824 832 840 847 858 876 889 894 898 892 878 874 875 875 874 872 871 871 870 869 868 869 869 868 867 866 865 864 863 862 861 860 859 858 858 857 856 856 855 854 853 851 850 848 846 845 844 842 841 840 838 837 835 833 831 830 829 828 827 826 825 824 823 822 821 820 820 820 820 819
813 821 827 825 819 821 821 813 808 809 811 815 820 825 825 823 826 839 852 854 853 866 880 889 899 895 878 875 877 872 870 870 868 868 870 869 869 870 869 869 868 867 867 866 864 864 863 861 861 859 859 858 857 857 856 855 854 852 851 849 847 846 844 843 841 840 839 837 835 833 831 829 828 827 826 825 823 822 821 820 820 819 819 818 818 818
811 819 826 829 827 825 819 809 806 808 807 811 818 821 824 825 827 840 859 863 860 869 875 880 896 896 878 875 879 873 868 868 868 867 868 870 870 870 870 869 869 868 867 866 865 864 864 863 862 862 861 860 859 857 857 856 854 853 851 850 848 846 845 844 842 841 839 837 835 833 831 829 828 826 825 824 822 821 820 819 819 818 818 817 816 816
810 822 829 831 829 821 813 807 806 806 808 816 823 820 821 826 828 834 847 854 863 874 875 882 902 899 879 875 877 873 868 868 868 867 868 871 871 871 871 870 869 869 868 868 867 866 865 864 864 863 862 862 860 859 858 857 856 854 853 852 850 848 847 845 844 842 840 839 837 834 832 830 828 827 825 824 822 821 819 818 818 817 816 815 815 814
815 827 831 837 843 838 831 827 823 819 818 824 827 824 823 826 828 835 842 847 863 876 874 884 904 898 878 874 874 870 869 870 870 869 869 872 873 872 872 871 870 870 870 871 870 869 868 867 866 865 864 863 861 861 860 858 857 856 855 854 852 851 849 847 845 844 842 840 838 836 834 832 830 828 826 824 822 821 819 818 817 816 815 814 814 813
816 826 828 836 851 856 854 849 841 833 829 830 832 831 830 830 829 835 845 854 868 877 875 882 896 892 879 876 874 872 872 873 873 872 872 872 873 873 872 872 872 872 873 873 872 871 870 869 868 867 866 865 863 862 861 859 858 857 856 855 854 853 851 849 847 846 844 842 840 838 836 834 832 830 828 826 824 822 820 819 817 816 814 813 812 812
816 824 824 828 838 843 843 838 831 830 835 842 843 840 839 838 835 837 851 864 872 878 882 883 884 887 886 881 879 877 875 876 876 874 874 873 873 873 873 874 874 874 874 874 873 872 871 871 870 869 868 867 865 864 863 861 859 858 858 857 855 854 852 851 849 847 845 844 841 839 837 835 833 831 829 827 825 823 821 819 818 816 814 813 812 810
818 827 827 827 829 829 828 828 826 830 839 845 846 845 843 842 840 842 853 864 866 875 890 886 878 885 890 884 881 880 877 877 877 875 874 874 873 874 875 876 876 876 876 875 874 874 873 873 872 871 869 868 866 865 864 862 861 860 859 858 857 856 854 852 850 848 847 845 842 841 838 836 834 832 830 828 826 824 822 820 818 816 814 813 811 810
819 829 829 827 828 827 826 828 829 833 841 844 846 848 846 844 846 849 858 863 862 870 883 882 878 885 887 882 880 878 875 876 876 875 874 874 875 876 877 877 878 878 877 877 876 876 875 875 874 872 871 869 868 867 866 865 863 861 860 860 858 857 855 853 851 849 847 845 844 842 840 838 836 833 831 829 827 825 823 821 819 817 814 812 810 809
819 829 828 825 827 829 831 832 832 836 843 848 848 849 849 850 852 854 860 864 862 868 875 876 880 884 882 879 877 875 874 874 874 875 875 876 878 878 879 880 880 880 879 879 878 878 877 877 875 874 873 871 870 869 868 867 865 864 863 861 859 858 856 854 852 850 848 846 844 843 842 839 837 834 832 830 828 826 824 822 819 817 815 812 810 808
818 829 830 824 829 838 837 835 836 839 844 850 853 851 850 855 859 860 863 864 866 875 878 877 882 886 880 876 875 874 873 873 874 877 878 879 879 879 881 883 882 882 881 880 880 880 879 878 877 876 875 874 873 871 870 868 867 865 864 862 861 859 857 855 853 851 849 847 846 845 843 840 838 836 834 832 830 827 825 823 820 817 815 812 810 808
817 828 829 825 837 849 843 841 845 843 845 853 856 853 851 855 859 861 861 861 865 875 880 881 885 887 880 875 875 874 874 874 877 879 880 881 880 880 883 884 884 884 884 883 882 881 880 880 879 878 877 876 874 872 871 870 868 866 865 863 862 860 858 856 854 852 851 849 847 845 843 841 839 836 835 832 831 828 826 824 821 818 816 813 810 808
819 823 827 830 843 852 847 844 842 841 852 863 859 851 852 854 856 858 860 860 861 867 875 880 880 879 876 874 875 877 876 877 879 880 881 882 882 883 885 885 886 887 885 885 884 883 883 882 881 880 879 877 876 874 873 871 869 868 866 864 863 860 859 857 855 853 852 850 849 846 844 842 840 837 835 833 831 829 826 824 821 819 816 813 811 809
821 821 828 834 841 851 851 842 839 849 865 867 852 844 847 850 852 858 861 862 861 862 864 868 871 873 874 873 874 877 879 879 880 881 881 882 882 885 887 887 888 888 887 886 886 884 884 883 882 881 880 878 877 876 874 873 871 870 868 866 864 862 860 859 857 855 853 851 849 848 845 843 841 838 836 834 831 829 826 824 822 819 817 814 812 809
822 823 831 835 839 848 849 842 852 870 870 856 847 844 845 847 849 855 860 861 860 861 862 866 870 872 873 873 874 877 880 880 881 883 883 883 883 885 887 888 888 888 888 888 887 886 886 884 883 882 880 880 879 876 875 874 873 871 869 867 866 863 861 860 858 856 854 852 850 849 846 844 842 839 837 835 832 829 826 824 822 820 817 815 812 810
821 824 831 838 843 849 851 853 865 873 862 851 852 850 847 849 850 856 865 866 861 860 862 866 870 871 872 875 876 877 880 880 882 885 885 885 885 885 887 888 888 888 888 888 887 887 886 885 885 884 882 881 879 877 876 875 874 873 870 868 867 865 863 861 859 858 856 854 852 850 848 845 843 840 838 836 833 830 827 825 822 820 817 815 812 810
819 824 829 839 849 853 859 865 867 866 864 860 856 849 845 848 848 852 866 870 861 859 861 864 869 872 873 875 877 877 878 880 886 891 889 887 886 886 887 888 888 888 888 888 887 887 886 886 885 884 883 881 879 878 877 876 875 873 871 870 868 866 864 862 861 860 858 856 854 852 849 847 844 841 839 837 834 831 829 826 823 820 817 814 812 810
818 822 823 836 852 857 861 869 873 874 873 863 852 844 841 844 844 845 860 869 862 859 861 862 867 871 872 874 878 876 876 883 892 895 891 889 888 887 888 888 888 888 888 888 887 887 886 886 885 884 883 881 880 880 878 877 876 874 872 871 869 867 866 864 863 861 859 857 855 853 850 848 845 843 840 838 835 833 830 827 824 821 817 814 812 811
821 824 822 832 849 855 855 865 873 873 866 855 847 844 844 845 842 844 863 875 866 860 861 861 865 869 869 873 876 874 878 890 897 894 890 889 888 887 888 889 888 889 888 888 888 887 887 887 885 885 884 882 881 880 879 878 876 874 873 872 870 869 867 866 865 863 860 858 856 853 851 848 846 843 841 839 836 834 831 828 825 822 818 815 813 812
822 826 829 835 847 851 854 863 868 864 857 849 844 844 845 842 840 853 876 878 864 860 862 860 864 868 868 871 874 873 879 888 892 890 888 887 887 887 887 888 888 888 888 888 888 888 887 887 886 885 884 883 882 881 879 878 876 874 874 872 871 870 869 868 866 863 861 859 856 854 851 848 846 844 842 840 837 834 832 829 826 823 820 816 814 812
828 831 836 840 846 851 855 864 868 862 852 845 842 842 842 842 849 865 872 863 855 861 862 859 864 868 867 870 872 874 878 882 883 886 886 886 886 887 887 888 887 887 888 888 888 888 887 887 886 885 884 884 882 881 880 878 876 875 874 873 872 872 871 869 867 864 861 859 856 854 851 848 846 844 842 840 837 834 832 830 828 826 822 819 816 813
834 837 840 842 848 854 857 863 870 864 848 839 841 841 840 848 859 862 856 850 854 861 861 860 865 867 868 870 872 875 879 881 882 885 886 885 887 888 887 887 887 888 888 888 888 888 887 887 886 885 885 884 883 882 880 878 877 877 876 875 874 874 872 869 867 864 862 859 857 854 852 849 847 844 842 840 837 834 832 830 829 827 824 821 818 816
830 836 844 846 849 857 862 866 868 861 845 836 840 843 843 848 853 851 850 854 857 858 860 863 865 866 868 872 874 877 879 882 884 885 886 886 887 887 888 888 888 889 889 888 888 888 887 887 886 886 885 884 883 882 880 879 878 878 877 877 876 875 872 869 867 865 862 860 857 855 852 850 847 845 843 840 838 835 833 831 829 827 825 822 820 817
828 834 843 846 846 850 856 858 853 847 839 835 838 842 842 843 844 844 849 856 857 858 860 863 866 867 867 870 875 878 880 882 884 885 886 887 888 887 888 888 888 889 889 888 889 888 887 887 887 886 886 885 884 883 881 880 879 878 878 878 877 874 872 869 867 864 862 860 858 855 853 850 848 846 844 841 839 836 834 832 830 828 826 824 821 819
825 825 829 838 845 845 845 845 842 840 840 838 837 839 841 843 844 845 847 853 857 858 859 861 867 869 867 869 874 878 880 883 884 885 886 887 887 888 888 889 889 889 889 889 889 889 888 888 887 887 887 885 884 883 882 881 880 880 880 879 877 874 872 869 867 864 862 861 859 856 854 851 848 846 844 842 840 837 835 834 831 829 827 825 822 820
822 821 822 833 845 845 841 842 842 841 841 840 839 841 842 844 846 847 848 853 856 857 858 861 865 868 868 870 873 877 881 882 883 885 886 887 888 888 888 888 889 889 889 889 889 889 889 888 888 887 887 886 885 884 883 882 882 881 881 879 876 874 872 869 867 865 863 862 859 857 854 851 849 846 844 842 840 838 837 836 833 831 829 826 824 822
824 823 825 834 842 843 844 846 843 842 843 843 843 845 845 846 848 848 850 854 856 858 860 862 864 867 869 870 872 877 881 881 882 886 887 886 888 888 887 888 889 889 890 890 890 889 889 888 888 888 887 887 886 885 884 884 883 882 881 879 876 874 872 869 868 866 864 862 860 858 855 852 850 847 845 842 840 838 837 836 834 833 831 828 825 823
823 821 828 838 842 841 845 846 844 844 845 843 843 845 847 849 851 850 852 855 857 859 861 863 865 867 870 871 874 877 879 881 883 885 886 886 887 887 887 888 889 890 890 890 889 889 889 888 889 888 888 888 888 887 886 885 884 882 881 878 876 874 872 870 868 867 865 863 861 859 856 854 852 849 847 845 842 840 838 836 835 834 833 831 829 826
816 819 828 839 844 846 847 847 847 849 850 849 847 846 847 848 850 853 855 856 858 860 863 865 867 868 870 873 874 875 879 882 882 883 885 886 886 887 888 889 889 890 890 890 889 889 889 889 889 889 889 889 889 887 886 885 884 882 880 878 877 874 872 871 869 868 866 864 862 860 857 855 853 851 849 846 844 841 839 838 836 835 834 832 831 829
815 824 833 841 847 848 844 840 839 842 847 850 848 846 847 848 849 852 855 856 858 861 863 866 869 870 872 873 874 875 879 882 882 883 885 885 886 887 888 888 889 890 890 889 889 889 889 890 890 889 890 890 889 888 887 885 884 882 881 879 877 875 873 871 870 868 867 865 863 861 858 856 854 852 850 848 845 842 839 836 835 835 834 832 829 827
811 820 825 830 834 833 829 829 829 831 839 845 845 844 847 847 848 852 855 856 858 861 862 865 869 872 874 875 875 876 878 881 882 883 884 885 886 887 887 888 889 889 889 889 889 890 890 891 890 891 891 891 889 888 887 885 884 883 881 880 878 876 874 872 870 869 867 866 864 862 860 858 855 853 851 848 846 843 840 836 832 831 831 831 828 824